sat.trackr.live / text

‹ back to catalog

KSM1-D

NORAD 46907 · 2020-081C

PAYLOAD ACTIVE UNKNOWN

§ Identity

Operator
Country
LUXE
Launch date
2020-11-07
Launch site
SRILR
Launch vehicle
Mass (kg)
RCS (m²)

External: N2YO · Heavens-Above · Gunter

§ Orbital elements

Epoch: 2026-09-20T04:58:54.960384Z

Period
94.37 min
Inclination
36.8948°
Eccentricity
0.0003844
Mean motion
15.25901716 rev/d
Perigee alt
485.4 km
Apogee alt
490.7 km
Semi-major
6,866.2 km
B*
2.1200e-4
RAAN
202.6202°
Arg perigee
295.2577°
Mean anomaly
64.7774°
Rev number
32,361

§ Raw data

KSM1-D1 46907U 20081C   26263.20758056  .00005469  00000+0  21200-3 0  99902 46907  36.8948 202.6202 0003844 295.2577  64.7774 15.25901716323613

JSON: /api/v1/satellites/46907 · /tle

For live sub-satellite position, see the globe view (requires WebGL).

§ Visibility from observer

Set your observer location to see the next 7 days of passes ≥ 10°. The values pass through the URL so the page stays shareable.

No JS? Fill the form by hand. The geolocation button needs JavaScript.

§ Radio — SatNOGS DB

ModeDescriptionDownlinkUplink
FSK AX.100 Mode 5 UHF Unknown 401.090 MHz

1 transmitter · refreshed weekly from db.satnogs.org